Le nostre stazioni meteo in Italia

Pubblicità
Il mio iltempo24.it
Gudja, Malta (16599): Temperatura & dewpoint: 05.07.2020 10:00:00 - 11.07.2020 10:00:00 (CEST)Gudja, Malta (16599): velocità del vento: 05.07.2020 10:00:00 - 11.07.2020 10:00:00 (CEST)Gudja, Malta (16599): direzione del vento: 05.07.2020 10:00:00 - 11.07.2020 10:00:00 (CEST)Gudja, Malta (16599): reduced air pressure: 05.07.2020 10:00:00 - 11.07.2020 10:00:00 (CEST)Gudja, Malta (16599): visibility: 05.07.2020 10:00:00 - 11.07.2020 10:00:00 (CEST)
Data & Tempo tt [°C] td [°C] ff [km/h] ff [kn] dd ppp [hPa] vv [km]
11.07.2020 10:00:00 - - - - - - -
11.07.2020 09:00:00 - - - - - - -
11.07.2020 08:00:00 24,8 21,4 8 4 O 1015,6 15
11.07.2020 07:00:00 - - - - - - -
11.07.2020 06:00:00 - - - - - - -
11.07.2020 05:00:00 21,7 20,4 8 4 O 1015,1 11
11.07.2020 04:00:00 - - - - - - -
11.07.2020 03:00:00 - - - - - - -
11.07.2020 02:00:00 22,7 20,7 9 5 NO 1015,9 21
11.07.2020 01:00:00 - - - - - - -
11.07.2020 00:00:00 - - - - - - -
10.07.2020 23:00:00 23,6 20,4 9 5 NNO 1015,8 30
10.07.2020 22:00:00 - - - - - - -
10.07.2020 21:00:00 - - - - - - -
10.07.2020 20:00:00 25,4 19,6 9 5 SSO 1014,8 30
10.07.2020 19:00:00 - - - - - - -
10.07.2020 18:00:00 - - - - - - -
10.07.2020 17:00:00 28,9 19,3 9 5 S 1014,6 30
10.07.2020 16:00:00 - - - - - - -
10.07.2020 15:00:00 - - - - - - -
10.07.2020 14:00:00 28,2 19,3 13 7 S 1015,5 30
10.07.2020 13:00:00 - - - - - - -
10.07.2020 12:00:00 - - - - - - -
10.07.2020 11:00:00 27,4 19,8 11 6 NNE 1015,8 24
10.07.2020 10:00:00 - - - - - - -
10.07.2020 09:00:00 - - - - - - -
10.07.2020 08:00:00 24,4 20,2 8 4 NNO 1015,7 12
10.07.2020 07:00:00 - - - - - - -
10.07.2020 06:00:00 - - - - - - -
10.07.2020 05:00:00 21,2 19,8 8 4 ONO 1015,7 12
10.07.2020 04:00:00 - - - - - - -
10.07.2020 03:00:00 - - - - - - -
10.07.2020 02:00:00 22,0 19,7 5 3 NO 1016,1 12
10.07.2020 01:00:00 - - - - - - -
10.07.2020 00:00:00 - - - - - - -
09.07.2020 23:00:00 22,8 19,6 4 2 ONO 1016,5 15
09.07.2020 22:00:00 - - - - - - -
09.07.2020 21:00:00 - - - - - - -
09.07.2020 20:00:00 25,1 19,5 5 3 NNE 1015,9 21
09.07.2020 19:00:00 - - - - - - -
09.07.2020 18:00:00 - - - - - - -
09.07.2020 17:00:00 27,2 19,9 13 7 NNE 1016,3 22
09.07.2020 16:00:00 - - - - - - -
09.07.2020 15:00:00 - - - - - - -
09.07.2020 14:00:00 27,9 20,4 11 6 NE 1016,7 22
09.07.2020 13:00:00 - - - - - - -
09.07.2020 12:00:00 - - - - - - -
09.07.2020 11:00:00 28,1 19,3 11 6 SSO 1017,2 21
09.07.2020 10:00:00 - - - - - - -
09.07.2020 09:00:00 - - - - - - -
09.07.2020 08:00:00 24,4 20,5 8 4 NO 1016,8 15
09.07.2020 07:00:00 - - - - - - -
09.07.2020 06:00:00 - - - - - - -
09.07.2020 05:00:00 21,6 20,2 5 3 OSO 1016,5 10
09.07.2020 04:00:00 - - - - - - -
09.07.2020 03:00:00 - - - - - - -
09.07.2020 02:00:00 22,1 20,2 4 2 ONO 1016,4 12
09.07.2020 01:00:00 - - - - - - -
09.07.2020 00:00:00 - - - - - - -
08.07.2020 23:00:00 23,3 20,3 5 3 SO 1016,6 15
08.07.2020 22:00:00 - - - - - - -
08.07.2020 21:00:00 - - - - - - -
08.07.2020 20:00:00 25,8 18,7 5 3 SSO 1015,5 18
08.07.2020 19:00:00 - - - - - - -
08.07.2020 18:00:00 - - - - - - -
08.07.2020 17:00:00 28,0 19,2 13 7 S 1015,7 18
08.07.2020 16:00:00 - - - - - - -
08.07.2020 15:00:00 - - - - - - -
08.07.2020 14:00:00 28,9 18,7 16 9 SSE 1015,7 15
08.07.2020 13:00:00 - - - - - - -
08.07.2020 12:00:00 - - - - - - -
08.07.2020 11:00:00 28,5 20,6 9 5 E 1015,3 15
08.07.2020 10:00:00 - - - - - - -
08.07.2020 09:00:00 - - - - - - -
08.07.2020 08:00:00 23,4 21,0 9 5 NO 1014,6 7
08.07.2020 07:00:00 - - - - - - -
08.07.2020 06:00:00 - - - - - - -
08.07.2020 05:00:00 20,7 19,0 4 2 ONO 1013,2 9
08.07.2020 04:00:00 - - - - - - -
08.07.2020 03:00:00 - - - - - - -
08.07.2020 02:00:00 21,4 19,9 8 4 NO 1012,9 10
08.07.2020 01:00:00 - - - - - - -
08.07.2020 00:00:00 - - - - - - -
07.07.2020 23:00:00 21,9 19,9 11 6 NO 1012,8 10
07.07.2020 22:00:00 - - - - - - -
07.07.2020 21:00:00 - - - - - - -
07.07.2020 20:00:00 24,3 20,0 18 10 NNO 1011,0 15
07.07.2020 19:00:00 - - - - - - -
07.07.2020 18:00:00 - - - - - - -
07.07.2020 17:00:00 27,8 20,3 24 13 NO 1010,1 18
07.07.2020 16:00:00 - - - - - - -
07.07.2020 15:00:00 - - - - - - -
07.07.2020 14:00:00 27,6 20,0 26 14 NO 1010,3 21
07.07.2020 13:00:00 - - - - - - -
07.07.2020 12:00:00 - - - - - - -
07.07.2020 11:00:00 26,8 19,0 29 16 ONO 1009,8 17
07.07.2020 10:00:00 - - - - - - -
07.07.2020 09:00:00 - - - - - - -
07.07.2020 08:00:00 23,2 19,5 28 15 NO 1009,1 19
07.07.2020 07:00:00 - - - - - - -
07.07.2020 06:00:00 - - - - - - -
07.07.2020 05:00:00 22,8 18,1 18 10 NNO 1007,7 30
07.07.2020 04:00:00 - - - - - - -
07.07.2020 03:00:00 - - - - - - -
07.07.2020 02:00:00 23,2 19,7 18 10 NNO 1008,0 19
07.07.2020 01:00:00 - - - - - - -
07.07.2020 00:00:00 - - - - - - -
06.07.2020 23:00:00 23,6 19,7 15 8 NO 1008,2 19
06.07.2020 22:00:00 - - - - - - -
06.07.2020 21:00:00 - - - - - - -
06.07.2020 20:00:00 24,8 19,0 22 12 NO 1007,6 26
06.07.2020 19:00:00 - - - - - - -
06.07.2020 18:00:00 - - - - - - -
06.07.2020 17:00:00 27,7 18,7 29 16 ONO 1007,9 30
06.07.2020 16:00:00 - - - - - - -
06.07.2020 15:00:00 - - - - - - -
06.07.2020 14:00:00 29,4 18,1 16 9 NO 1008,5 35
06.07.2020 13:00:00 - - - - - - -
06.07.2020 12:00:00 - - - - - - -
06.07.2020 11:00:00 27,9 17,7 15 8 N 1009,3 35
06.07.2020 10:00:00 - - - - - - -
06.07.2020 09:00:00 - - - - - - -
06.07.2020 08:00:00 24,1 19,6 18 10 NO 1009,3 15
06.07.2020 07:00:00 - - - - - - -
06.07.2020 06:00:00 - - - - - - -
06.07.2020 05:00:00 21,6 19,8 16 9 NO 1009,3 12
06.07.2020 04:00:00 - - - - - - -
06.07.2020 03:00:00 - - - - - - -
06.07.2020 02:00:00 22,1 19,6 16 9 NO 1011,0 12
06.07.2020 01:00:00 - - - - - - -
06.07.2020 00:00:00 - - - - - - -
05.07.2020 23:00:00 23,8 19,8 16 9 NNO 1011,6 12
05.07.2020 22:00:00 - - - - - - -
05.07.2020 21:00:00 - - - - - - -
05.07.2020 20:00:00 25,0 20,1 35 19 NO 1010,5 18
05.07.2020 19:00:00 - - - - - - -
05.07.2020 18:00:00 - - - - - - -
05.07.2020 17:00:00 27,6 19,8 26 14 ONO 1011,4 30
05.07.2020 16:00:00 - - - - - - -
05.07.2020 15:00:00 - - - - - - -
05.07.2020 14:00:00 28,9 15,7 22 12 ONO 1012,7 45
05.07.2020 13:00:00 - - - - - - -
05.07.2020 12:00:00 - - - - - - -
05.07.2020 11:00:00 27,6 17,1 16 9 NNO 1013,2 40
05.07.2020 10:00:00 - - - - - - -

tt = Temperatura
td = dewpoint
ff = velocità del vento
dd = direzione del vento
ppp = reduced air pressure
vv = visibility

Stazioni seguenti

WeatherPro
AMSI
MeteoEarth